Regional Weather Roundup
Issued by NWS Northern Indiana

Home | Current Version | Previous Version | Text Only | Print | Product List | Glossary On
Versions: 1 2 3 4 5 6 7 8 9 10 11 12 13 14 15 16 17 18 19 20 21 22 23 24 25 26 27 28 29 30 31 32 33 34 35 36 37 38 39 40 41 42 43 44 45 46 47 48 49 50
000
ASUS43 KIWX 262310
RWRIWX

KIWX WEATHER ROUNDUP
NATIONAL WEATHER SERVICE NORTHERN INDIANA
700 PM EDT SUN MAR 26 2017

NOTE: "FAIR" INDICATES FEW OR NO CLOUDS BELOW 12,000 FEET WITH NO
SIGNIFICANT WEATHER AND/OR OBSTRUCTIONS TO VISIBILITY.

* THESE STATIONS ARE NOT UNDER NWS QUALITY CONTROL. THEY ALSO MAY NOT
  REPORT WEATHER SUCH AS PRECIPITATION OR FOG.

INZ001>027-270000-
NORTHERN INDIANA

CITY           SKY/WX    TMP DP  RH WIND       PRES   REMARKS
GARY*          CLOUDY    59  48  67 SW14      29.84R
VALPARAISO     PTSUNNY   59  53  80 W13       29.84R
MICHIGAN CITY* CLOUDY    59  54  82 CALM      29.83R
LAPORTE*       CLOUDY    58  54  85 SW5       29.83F
KNOX*          MOSUNNY   57  39  51 CALM      29.82F
SOUTH BEND     LGT RAIN  55  55 100 S7        29.85R FOG
GOSHEN         MOSUNNY   59  53  80 SW5       29.84S
MONTICELLO*    DRIZZLE   57  53  84 SW13G18   29.85R
LOGANSPORT*    RAIN      57  52  82 SW10      29.86R
ROCHESTER*     PTSUNNY   63  55  77 SW6       29.85S
WARSAW*        CLOUDY    59  52  77 W8        29.84S
ANGOLA*        PTSUNNY   55  54  94 S5        29.85S
FORT WAYNE     LGT RAIN  56  53  90 S12       29.87S
HUNTINGTON*    CLOUDY    54  53  96 S3        29.86S
PERU/GRISSOM   CLOUDY    59  57  92 SW10      29.83F
MARION*        CLOUDY    56  54  91 S8        29.88R

$$
INZ028>050-270000-
CENTRAL INDIANA

CITY           SKY/WX    TMP DP  RH WIND       PRES   REMARKS
LAFAYETTE      CLOUDY    60  51  72 SW13G20   29.86R
KOKOMO*        CLOUDY    59  54  83 S7        29.87R
MUNCIE*        CLOUDY    58  53  84 S6        29.88R
INDIANAPOLIS   MOSUNNY   60  52  74 SW15      29.87R

$$
MIZ043>046-050>051-056>058-064>065-071>073-077>080-270000-
SOUTHWEST LOWER MICHIGAN

CITY           SKY/WX    TMP DP  RH WIND       PRES   REMARKS
BATTLE CREEK   RAIN      54  53  97 SE5       29.85S FOG
BENTON HARBOR  CLOUDY    57  53  86 CALM      29.82F
COLDWATER*     LGT RAIN  55  54  95 S5        29.85S
HILLSDALE*     CLOUDY    52  52 100 SE5       29.86S FOG
HOLLAND        LGT RAIN  56  54  93 SE3       29.83S
GRAND RAPIDS   CLOUDY    53  53 100 E5        29.83F FOG
KALAMAZOO      LGT RAIN  56  52  86 SE5       29.85S FOG
STURGIS*       CLOUDY    57  54  91 S7        29.84S
THREE RIVERS*  CLOUDY    55  53  94 CALM      29.85S

$$
OHZ001>008-015>018-024>025-270000-
NORTHWEST OHIO

CITY           SKY/WX    TMP DP  RH WIND       PRES   REMARKS
WAUSEON*       LGT RAIN  55  55 100 E5        29.88R
DEFIANCE       LGT RAIN  53  50  89 CALM      29.88R FOG
FINDLAY        CLOUDY    62  52  69 S12       29.88R
TOLEDO EXPRESS MOCLDY    54  52  93 NE6       29.88R
TOLEDO METCALF CLOUDY    52  50  93 N3        29.89R
LIMA           RAIN      59  55  87 S17G23    29.90R FOG

$$
AND FOR LAKE MICHIGAN COASTAL AND OPEN LAKE BUOY OBSERVATIONS

STATION/POSITION TEMP    WIND        PRES    VSBY  WAVE
                 AIR SEA DIR/SP/G                  HT/PER
                 (F)     (DEG/KT/KT) (MB)    (MI)  (FT/S)
CALUMET HARBOR    57     210/  8/ 11 1009.5R
MICHIGAN CITY     53      50/  2/  3   N/A
BURNS HARBOR      56     260/ 12/ 16 1010.5R

$$
&&



USA.gov is the U.S. government's official web portal to all federal, state and local government web resources and services.